Weather History for Goshen, IN

Change the Weather History Date:

Tuesday, November 9, 2010

  Actual Average Record
Temperature  
Mean Temperature 52 °F -  
Max Temperature 68 °F 52 °F 73 °F (1999)
Min Temperature 35 °F 36 °F 14 °F (1991)
Degree Days  
Heating Degree Days 14    
Growing Degree Days 2 (Base 50)    
Moisture  
Dew Point 33 °F    
Average Humidity 54    
Maximum Humidity 78    
Minimum Humidity 28    
Precipitation  
Precipitation 0.00 in - - ()
Sea Level Pressure  
Sea Level Pressure 30.02 in    
Wind  
Wind Speed 5 mph (SE)    
Max Wind Speed 12 mph    
Max Gust Speed -    
Visibility 10 miles    
Events      
Averages and records for this station are not official NWS values.
T = Trace of Precipitation, MM = Missing Value Source: NWS Daily Summary

Daily Weather History Graph

Daily Weather History Graph

Search for Another Location

Airport:

Trip Planner

Search our weather history database for the weather conditions in past years. The results will help you decide how hot, cold, wet, or windy it might be!

Date:

Astronomy

Nov. 09, 2010 Rise Set
Actual Time 7:24 AM EST 5:28 PM EST
Civil Twilight 6:55 AM EST 5:58 PM EST
Nautical Twilight 6:22 AM EST 6:31 PM EST
Astronomical Twilight 5:49 AM EST 7:03 PM EST
Moon 11:06 AM EST (11/9) 8:24 PM EST (11/9)
Length of Visible Light 11h 02m
Length of Day
10h 04m
Waxing Crescent, 14% of the Moon is Illuminated
Nov 9
Waxing Crescent
Nov 13
First Quarter
Nov 21
Full
Nov 28
Last Quarter
Dec 5
New

Hourly Weather History & Observations

Time (EST) Temp. Windchill Dew Point Humidity Pressure Visibility Wind Dir Wind Speed Gust Speed Precip Events Conditions
12:53 AM 39.0 °F - 30.9 °F 73% 29.99 in 10.0 mi Calm Calm - N/A   Clear
1:53 AM 39.9 °F 35.1 °F 30.0 °F 68% 29.98 in 10.0 mi SE 6.9 mph - N/A   Clear
2:53 AM 35.1 °F 31.0 °F 28.9 °F 78% 29.99 in 10.0 mi ESE 4.6 mph - N/A   Clear
3:53 AM 37.0 °F 32.4 °F 28.9 °F 73% 29.99 in 10.0 mi East 5.8 mph - N/A   Clear
4:53 AM 39.9 °F 36.7 °F 28.9 °F 65% 29.99 in 10.0 mi SE 4.6 mph - N/A   Clear
5:53 AM 39.0 °F 36.8 °F 30.0 °F 70% 30.01 in 10.0 mi SE 3.5 mph - N/A   Clear
6:53 AM 39.0 °F 36.8 °F 30.0 °F 70% 30.01 in 10.0 mi ESE 3.5 mph - N/A   Clear
7:53 AM 37.9 °F - 30.9 °F 76% 30.02 in 9.0 mi Calm Calm - N/A   Clear
8:53 AM 45.0 °F 42.6 °F 33.1 °F 63% 30.04 in 10.0 mi SE 4.6 mph - N/A   Clear
10:53 AM 55.9 °F - 35.1 °F 45% 30.05 in 10.0 mi ESE 5.8 mph - N/A   Clear
11:53 AM 62.1 °F - 35.1 °F 37% 30.04 in 10.0 mi ESE 9.2 mph - N/A   Clear
12:53 PM 66.0 °F - 35.1 °F 32% 30.02 in 10.0 mi SE 10.4 mph - N/A   Clear
1:53 PM 68.0 °F - 35.1 °F 30% 30.01 in 10.0 mi SSE 10.4 mph - N/A   Clear
2:53 PM 68.0 °F - 34.0 °F 28% 30.01 in 10.0 mi SSE 9.2 mph - N/A   Clear
3:53 PM 68.0 °F - 35.1 °F 30% 30.01 in 10.0 mi SSE 6.9 mph - N/A   Clear
4:53 PM 64.0 °F - 36.0 °F 35% 30.01 in 10.0 mi SE 5.8 mph - N/A   Clear
5:53 PM 57.0 °F - 34.0 °F 42% 30.03 in 10.0 mi ESE 4.6 mph - N/A   Clear
6:53 PM 54.0 °F - 34.0 °F 47% 30.04 in 10.0 mi ESE 6.9 mph - N/A   Clear
7:53 PM 55.0 °F - 33.1 °F 43% 30.05 in 10.0 mi ESE 8.1 mph - N/A   Clear
8:53 PM 50.0 °F - 32.0 °F 50% 30.06 in 10.0 mi ESE 5.8 mph - N/A   Clear
10:53 PM 48.9 °F - 35.1 °F 59% 30.07 in 9.0 mi ESE 11.5 mph - N/A   Clear
11:53 PM 46.0 °F 41.0 °F 35.1 °F 66% 30.08 in 9.0 mi ESE 10.4 mph - N/A   Clear